Destin, FL

12:28 AM CDT on April 30, 2017 (GMT -0500)
Destin-Fort Walton Beach

Weather History for KDTS - October, 2012

Change the Weather History Date:

Thursday, October 18, 2012

  Actual Average Record
Temperature  
Mean Temperature 71 °F -  
Max Temperature 79 °F 76 °F 87 °F (2016)
Min Temperature 64 °F 60 °F 51 °F (2001)
Cooling Degree Days 6    
Growing Degree Days 21 (Base 50)    
Moisture  
Dew Point 65 °F    
Average Humidity 84    
Maximum Humidity 94    
Minimum Humidity 66    
Precipitation  
Precipitation 1.38 in - - ()
Sea Level Pressure  
Sea Level Pressure 29.83 in    
Wind  
Wind Speed 8 mph (NNE)    
Max Wind Speed 13 mph    
Max Gust Speed 24 mph    
Visibility 8 miles    
Events Rain , Thunderstorm    
Averages and records for this station are not official NWS values.
T = Trace of Precipitation, MM = Missing Value Source: NWS Daily Summary

Daily Weather History Graph

Daily Weather History Graph

Search for Another Location

Airport or City:

Trip Planner

Search our weather history database for the weather conditions in past years. The results will help you decide how hot, cold, wet, or windy it might be!

Date:

Astronomy

Oct. 18, 2012 Rise Set
Actual Time 6:50 AM CDT 6:10 PM CDT
Civil Twilight 6:26 AM CDT 6:35 PM CDT
Nautical Twilight 5:58 AM CDT 7:03 PM CDT
Astronomical Twilight 5:30 AM CDT 7:31 PM CDT
Moon 10:17 AM CDT (10/18) 8:59 PM CDT (10/18)
Length of Visible Light 12h 09m
Length of Day
11h 20m
Waxing Crescent, 14% of the Moon is Illuminated
Oct 18
Waxing Crescent
Oct 21
First Quarter
Oct 29
Full
Nov 6
Last Quarter
Nov 13
New

Hourly Weather History & Observations

Time (CDT) Temp. Dew Point Humidity Pressure Visibility Wind Dir Wind Speed Gust Speed Precip Events Conditions
12:53 AM 73.9 °F 62.1 °F 66% 29.83 in 10.0 mi South 9.2 mph - N/A   Clear
1:53 AM 73.9 °F 63.0 °F 68% 29.82 in 10.0 mi South 6.9 mph - N/A   Partly Cloudy
2:53 AM 75.0 °F 64.9 °F 71% 29.80 in 10.0 mi South 5.8 mph - N/A   Partly Cloudy
3:53 AM 75.9 °F 64.9 °F 69% 29.80 in 10.0 mi Variable 5.8 mph - N/A   Overcast
4:53 AM 75.9 °F 66.0 °F 71% 29.78 in 10.0 mi South 11.5 mph 17.3 mph N/A   Scattered Clouds
5:53 AM 77.0 °F 66.0 °F 69% 29.79 in 10.0 mi SSW 8.1 mph 24.2 mph N/A   Partly Cloudy
6:53 AM 77.0 °F 68.0 °F 74% 29.79 in 10.0 mi SSW 9.2 mph 18.4 mph N/A   Partly Cloudy
7:53 AM 78.1 °F 68.0 °F 71% 29.79 in 10.0 mi SSW 11.5 mph 19.6 mph N/A   Partly Cloudy
8:20 AM 78.8 °F 68.0 °F 69% 29.81 in 10.0 mi SSW 9.2 mph 18.4 mph N/A   Mostly Cloudy
8:53 AM 72.0 °F 64.0 °F 76% 29.85 in 10.0 mi North 12.7 mph 18.4 mph N/A   Overcast
9:07 AM 69.8 °F 64.4 °F 83% 29.84 in 10.0 mi NNE 11.5 mph 16.1 mph 0.00 in Rain Light Rain
9:53 AM 69.1 °F 64.0 °F 84% 29.84 in 9.0 mi ENE 10.4 mph - 0.00 in Rain Light Rain
10:02 AM 68.0 °F 64.4 °F 88% 29.85 in 1.8 mi NE 8.1 mph - 0.13 in Rain Heavy Rain
10:13 AM 66.2 °F 64.4 °F 94% 29.84 in 3.0 mi ENE 9.2 mph - 0.18 in Rain Rain
10:53 AM 66.0 °F 64.0 °F 93% 29.85 in 2.0 mi NNE 12.7 mph 17.3 mph 0.40 in Rain Heavy Rain
11:01 AM 66.2 °F 62.6 °F 88% 29.86 in 1.0 mi NNE 9.2 mph - 0.21 in Rain , Thunderstorm Heavy Rain
11:04 AM 64.4 °F 62.6 °F 94% 29.86 in 0.8 mi NNE 10.4 mph - 0.32 in Rain , Thunderstorm Heavy Rain
11:13 AM 64.4 °F 62.6 °F 94% 29.85 in 1.0 mi NE 8.1 mph - 0.43 in Rain , Thunderstorm Heavy Rain
11:18 AM 64.4 °F 62.6 °F 94% 29.87 in 3.0 mi NNE 9.2 mph - 0.44 in Rain , Thunderstorm Thunderstorms and Rain
11:26 AM 64.4 °F 62.6 °F 94% 29.86 in 1.8 mi NE 9.2 mph - 0.60 in Rain , Thunderstorm Heavy Thunderstorms and Rain
11:38 AM 64.4 °F 62.6 °F 94% 29.86 in 1.0 mi NNE 8.1 mph - 0.80 in Rain , Thunderstorm Heavy Thunderstorms and Rain
11:53 AM 64.9 °F 63.0 °F 93% 29.85 in 3.0 mi ENE 6.9 mph - 0.87 in Rain Rain
12:06 PM 66.2 °F 62.6 °F 88% 29.86 in 9.0 mi NE 5.8 mph - 0.01 in Rain Light Rain
12:53 PM 66.0 °F 64.0 °F 93% 29.84 in 10.0 mi East 6.9 mph - 0.07 in Rain Light Rain
1:53 PM 66.9 °F 64.0 °F 90% 29.81 in 10.0 mi ENE 8.1 mph - 0.04 in Rain Light Rain
2:53 PM 71.1 °F 66.0 °F 84% 29.81 in 10.0 mi East 6.9 mph - 0.00 in   Scattered Clouds
3:40 PM 71.6 °F 66.2 °F 83% 29.82 in 10.0 mi NNE 4.6 mph - N/A   Mostly Cloudy
3:53 PM 72.0 °F 66.0 °F 81% 29.82 in 10.0 mi North 6.9 mph - N/A   Partly Cloudy
4:11 PM 71.6 °F 66.2 °F 83% 29.82 in 10.0 mi NNW 4.6 mph - N/A   Mostly Cloudy
4:53 PM 72.0 °F 66.0 °F 81% 29.79 in 10.0 mi NNE 5.8 mph - N/A   Mostly Cloudy
5:10 PM 71.6 °F 66.2 °F 83% 29.80 in 10.0 mi North 5.8 mph - N/A   Mostly Cloudy
5:43 PM 71.6 °F 66.2 °F 83% 29.81 in 10.0 mi North 4.6 mph - N/A   Mostly Cloudy
5:53 PM 71.1 °F 66.9 °F 87% 29.81 in 10.0 mi North 5.8 mph - N/A   Mostly Cloudy
6:07 PM 71.6 °F 66.2 °F 83% 29.81 in 10.0 mi North 4.6 mph - N/A   Overcast
6:18 PM 71.6 °F 66.2 °F 83% 29.82 in 10.0 mi North 4.6 mph - N/A   Mostly Cloudy
6:53 PM 70.0 °F 66.0 °F 87% 29.82 in 10.0 mi Calm Calm - N/A   Scattered Clouds
7:53 PM 69.1 °F 66.0 °F 90% 29.85 in 10.0 mi Calm Calm - N/A   Mostly Cloudy
8:53 PM 70.0 °F 66.0 °F 87% 29.86 in 10.0 mi Calm Calm - N/A   Overcast
9:53 PM 69.1 °F 66.0 °F 90% 29.87 in 10.0 mi Calm Calm - N/A   Mostly Cloudy
10:22 PM 68.0 °F 64.4 °F 88% 29.87 in 1.8 mi Calm Calm - N/A   Clear
10:39 PM 66.2 °F 64.4 °F 94% 29.87 in 3.0 mi Calm Calm - N/A   Clear
10:53 PM 68.0 °F 64.9 °F 90% 29.86 in 10.0 mi NNW 3.5 mph - N/A   Clear
11:53 PM 70.0 °F 64.0 °F 81% 29.86 in 10.0 mi NNW 6.9 mph - N/A   Unknown